Bowie, TX

5:25 AM CDT on May 26, 2017 (GMT -0500)
Bowie

Weather History for K0F2 - April, 2013

Change the Weather History Date:

Thursday, April 18, 2013

  Actual Average (KSPS) Record (KSPS)
Temperature  
Mean Temperature 55 °F -  
Max Temperature 73 °F 73 °F 103 °F (2011)
Min Temperature 37 °F 49 °F 36 °F (1944)
Degree Days  
Heating Degree Days 10    
Growing Degree Days 5 (Base 50)    
Moisture  
Dew Point 38 °F    
Average Humidity 69    
Maximum Humidity 100    
Minimum Humidity 43    
Precipitation  
Precipitation 0.08 in - - ()
Sea Level Pressure  
Sea Level Pressure 29.92 in    
Wind  
Wind Speed 19 mph (WNW)    
Max Wind Speed 26 mph    
Max Gust Speed 39 mph    
Visibility 10 miles    
Events Rain , Thunderstorm    
Averages and records for this station are not official NWS values.
T = Trace of Precipitation, MM = Missing Value Source: NWS Daily Summary

Daily Weather History Graph

Daily Weather History Graph

Search for Another Location

Airport or City:

Trip Planner

Search our weather history database for the weather conditions in past years. The results will help you decide how hot, cold, wet, or windy it might be!

Date:

Astronomy

Apr. 18, 2013 Rise Set
Actual Time 6:56 AM CDT 8:04 PM CDT
Civil Twilight 6:30 AM CDT 8:30 PM CDT
Nautical Twilight 6:00 AM CDT 9:01 PM CDT
Astronomical Twilight 5:28 AM CDT 9:32 PM CDT
Moon 1:12 PM CDT (4/18) 2:16 AM CDT (4/18)
Length of Visible Light 13h 59m
Length of Day
13h 07m
First Quarter, 52% of the Moon is Illuminated
Apr 18
First Quarter
Apr 25
Full
May 2
Last Quarter
May 9
New
May 17
First Quarter

Hourly Weather History & Observations

Time (CDT) Temp. Windchill Dew Point Humidity Pressure Visibility Wind Dir Wind Speed Gust Speed Precip Events Conditions
12:15 AM 73.4 °F - 66.2 °F 78% 29.57 in 10.0 mi SE 19.6 mph 32.2 mph N/A   Overcast
12:35 AM 73.4 °F - 66.2 °F 78% 29.57 in 10.0 mi SE 18.4 mph 28.8 mph N/A   Overcast
12:55 AM 73.4 °F - 66.2 °F 78% 29.56 in 10.0 mi SSE 20.7 mph 34.5 mph N/A   Overcast
1:15 AM 73.4 °F - 64.4 °F 73% 29.56 in 10.0 mi SSE 16.1 mph 29.9 mph N/A   Overcast
1:35 AM 73.4 °F - 64.4 °F 73% 29.58 in 10.0 mi SSE 17.3 mph 28.8 mph N/A   Overcast
1:55 AM 73.4 °F - 64.4 °F 73% 29.62 in 10.0 mi SSW 11.5 mph 25.3 mph N/A   Overcast
2:15 AM 69.8 °F - 55.4 °F 60% 29.65 in 10.0 mi West 26.5 mph 35.7 mph N/A   Overcast
2:35 AM 53.6 °F - 50.0 °F 88% 29.68 in 10.0 mi West 25.3 mph 35.7 mph N/A Rain , Thunderstorm Light Thunderstorms and Rain
2:55 AM 50.0 °F - 46.4 °F 87% 29.69 in 10.0 mi West 25.3 mph 39.1 mph 0.06 in Rain , Thunderstorm Light Thunderstorms and Rain
3:15 AM 46.4 °F 38.3 °F 46.4 °F 100% 29.70 in 10.0 mi WNW 23.0 mph 32.2 mph N/A Rain , Thunderstorm Light Thunderstorms and Rain
3:35 AM 46.4 °F 38.1 °F 46.4 °F 100% 29.74 in 10.0 mi West 24.2 mph 31.1 mph N/A Thunderstorm Overcast
3:55 AM 46.4 °F 39.0 °F 46.4 °F 100% 29.73 in 10.0 mi NW 19.6 mph 26.5 mph N/A Rain , Thunderstorm Light Thunderstorms and Rain
4:15 AM 44.6 °F 36.1 °F 44.6 °F 100% 29.76 in 7.0 mi WNW 21.9 mph 34.5 mph 0.01 in Rain Rain
4:35 AM 44.6 °F 36.9 °F 44.6 °F 100% 29.77 in 10.0 mi NW 18.4 mph 23.0 mph 0.02 in Rain Light Rain
4:55 AM 44.6 °F 36.4 °F 44.6 °F 100% 29.75 in 10.0 mi NW 20.7 mph 24.2 mph 0.02 in   Overcast
5:15 AM 44.6 °F 37.2 °F 42.8 °F 93% 29.78 in 10.0 mi NW 17.3 mph 24.2 mph N/A   Overcast
5:35 AM 42.8 °F 35.1 °F 42.8 °F 100% 29.83 in 10.0 mi WNW 16.1 mph 23.0 mph N/A   Overcast
5:55 AM 42.8 °F 34.0 °F 41.0 °F 93% 29.84 in 10.0 mi WNW 20.7 mph 28.8 mph N/A   Overcast
6:15 AM 42.8 °F 33.8 °F 41.0 °F 93% 29.84 in 10.0 mi WNW 21.9 mph 29.9 mph N/A   Overcast
6:35 AM 42.8 °F 33.5 °F 41.0 °F 93% 29.84 in 10.0 mi WNW 23.0 mph 31.1 mph N/A   Overcast
6:55 AM 42.8 °F 33.3 °F 39.2 °F 87% 29.85 in 10.0 mi WNW 24.2 mph 33.4 mph N/A   Overcast
7:15 AM 42.8 °F 33.3 °F 37.4 °F 81% 29.87 in 10.0 mi WNW 24.2 mph 29.9 mph N/A   Overcast
7:35 AM 42.8 °F 34.5 °F 37.4 °F 81% 29.91 in 10.0 mi WNW 18.4 mph 33.4 mph N/A   Overcast
7:55 AM 41.0 °F 31.9 °F 35.6 °F 81% 29.95 in 10.0 mi WNW 19.6 mph 29.9 mph N/A   Overcast
8:15 AM 41.0 °F 31.9 °F 35.6 °F 81% 29.95 in 10.0 mi NW 19.6 mph 31.1 mph N/A   Overcast
8:35 AM 41.0 °F 31.9 °F 35.6 °F 81% 29.94 in 10.0 mi NW 19.6 mph 28.8 mph N/A   Overcast
8:55 AM 41.0 °F 31.6 °F 33.8 °F 76% 29.94 in 10.0 mi NW 20.7 mph 29.9 mph N/A   Overcast
9:15 AM 41.0 °F 31.1 °F 33.8 °F 76% 29.94 in 10.0 mi NW 23.0 mph 29.9 mph N/A   Overcast
9:35 AM 41.0 °F 30.7 °F 33.8 °F 76% 29.94 in 10.0 mi NW 25.3 mph 35.7 mph N/A   Overcast
9:55 AM 42.8 °F 33.3 °F 33.8 °F 70% 29.95 in 10.0 mi WNW 24.2 mph 32.2 mph N/A   Overcast
10:15 AM 41.0 °F 32.8 °F 33.8 °F 76% 29.98 in 10.0 mi NW 16.1 mph 31.1 mph N/A   Overcast
10:35 AM 41.0 °F 32.2 °F 33.8 °F 76% 29.98 in 10.0 mi NW 18.4 mph 27.6 mph N/A   Overcast
10:55 AM 41.0 °F 31.9 °F 33.8 °F 76% 29.98 in 10.0 mi NW 19.6 mph 28.8 mph N/A   Overcast
11:15 AM 42.8 °F 33.3 °F 32.0 °F 66% 29.99 in 10.0 mi NW 24.2 mph 29.9 mph N/A   Overcast
11:35 AM 44.6 °F 35.7 °F 33.8 °F 66% 29.99 in 10.0 mi NW 24.2 mph 28.8 mph N/A   Overcast
11:55 AM 44.6 °F 37.2 °F 32.0 °F 61% 29.99 in 10.0 mi WNW 17.3 mph 27.6 mph N/A   Overcast
12:15 PM 46.4 °F 39.0 °F 32.0 °F 57% 29.99 in 10.0 mi WNW 19.6 mph 27.6 mph N/A   Overcast
12:35 PM 46.4 °F 39.5 °F 33.8 °F 62% 30.00 in 10.0 mi WNW 17.3 mph 24.2 mph N/A   Overcast
12:55 PM 48.2 °F - 33.8 °F 58% 30.00 in 10.0 mi WNW 20.7 mph 31.1 mph N/A   Overcast
1:15 PM 50.0 °F - 33.8 °F 54% 30.00 in 10.0 mi NW 19.6 mph 25.3 mph N/A   Overcast
1:35 PM 50.0 °F - 33.8 °F 54% 30.00 in 10.0 mi WNW 20.7 mph 26.5 mph N/A   Overcast
1:55 PM 50.0 °F - 33.8 °F 54% 29.99 in 10.0 mi WNW 18.4 mph 28.8 mph N/A   Overcast
2:15 PM 50.0 °F - 32.0 °F 50% 29.99 in 10.0 mi NW 21.9 mph 29.9 mph N/A   Mostly Cloudy
2:35 PM 51.8 °F - 33.8 °F 50% 29.99 in 10.0 mi WNW 21.9 mph 31.1 mph N/A   Mostly Cloudy
2:55 PM 51.8 °F - 32.0 °F 47% 30.00 in 10.0 mi WNW 23.0 mph 31.1 mph N/A   Mostly Cloudy
3:35 PM 51.8 °F - 32.0 °F 47% 30.00 in 10.0 mi NW 18.4 mph 29.9 mph N/A   Mostly Cloudy
3:55 PM 51.8 °F - 32.0 °F 47% 30.00 in 10.0 mi WNW 16.1 mph 28.8 mph N/A   Mostly Cloudy
4:15 PM 53.6 °F - 32.0 °F 44% 30.00 in 10.0 mi WNW 20.7 mph 31.1 mph N/A   Mostly Cloudy
4:35 PM 53.6 °F - 32.0 °F 44% 29.99 in 10.0 mi NW 18.4 mph 28.8 mph N/A   Mostly Cloudy
4:55 PM 53.6 °F - 32.0 °F 44% 30.00 in 10.0 mi NW 21.9 mph 28.8 mph N/A   Mostly Cloudy
5:15 PM 51.8 °F - 32.0 °F 47% 30.00 in 10.0 mi WNW 21.9 mph 28.8 mph N/A   Mostly Cloudy
5:35 PM 51.8 °F - 32.0 °F 47% 30.01 in 10.0 mi NW 20.7 mph 26.5 mph N/A   Mostly Cloudy
5:55 PM 51.8 °F - 30.2 °F 44% 30.02 in 10.0 mi NW 19.6 mph 26.5 mph N/A   Scattered Clouds
6:15 PM 51.8 °F - 30.2 °F 44% 30.02 in 10.0 mi NW 17.3 mph 27.6 mph N/A   Scattered Clouds
6:35 PM 51.8 °F - 30.2 °F 44% 30.03 in 10.0 mi NW 20.7 mph 28.8 mph N/A   Scattered Clouds
6:55 PM 51.8 °F - 30.2 °F 44% 30.04 in 10.0 mi NW 20.7 mph 24.2 mph N/A   Scattered Clouds
7:15 PM 50.0 °F - 28.4 °F 43% 30.05 in 10.0 mi NW 18.4 mph 26.5 mph N/A   Scattered Clouds
7:35 PM 50.0 °F - 30.2 °F 47% 30.06 in 10.0 mi NW 10.4 mph 18.4 mph N/A   Clear
7:55 PM 48.2 °F - 30.2 °F 50% 30.07 in 10.0 mi NW 12.7 mph 17.3 mph N/A   Clear
8:15 PM 46.4 °F 41.5 °F 30.2 °F 53% 30.08 in 10.0 mi NW 10.4 mph - N/A   Clear
8:35 PM 44.6 °F 39.2 °F 32.0 °F 61% 30.10 in 10.0 mi NW 10.4 mph - N/A   Clear
9:55 PM 42.8 °F 40.1 °F 32.0 °F 66% 30.15 in 10.0 mi NW 4.6 mph - N/A   Clear
10:35 PM 41.0 °F 36.4 °F 32.0 °F 70% 30.16 in 10.0 mi WNW 6.9 mph - N/A   Clear
10:55 PM 41.0 °F 37.1 °F 32.0 °F 70% 30.17 in 10.0 mi NW 5.8 mph - N/A   Clear
11:15 PM 39.2 °F 37.0 °F 32.0 °F 75% 30.17 in 10.0 mi NNW 3.5 mph - N/A   Clear
11:35 PM 37.4 °F 33.8 °F 32.0 °F 81% 30.17 in 10.0 mi NW 4.6 mph - N/A   Clear
11:55 PM 37.4 °F 34.9 °F 32.0 °F 81% 30.17 in 10.0 mi NW 3.5 mph - N/A   Clear